Tracking 17154 objects as of 2-August-2015
HD Live streaming from Space Station

COSMOS 2251 DEB

Track COSMOS 2251 DEB now!
10-day predictions
COSMOS 2251 DEB is classified as:


NORAD ID: 35448
Int'l Code: 1993-036AKS
Perigee: 757.8 km
Apogee: 778.2 km
Inclination: 73.9 °
Period: 100.0 minutes
Semi major axis: 7139 km
RCS: 0.0138 m2 (small)
Launch date: June 16, 1993
Source: Commonwealth of Independent States (former USSR) (CIS)

Note: This is SATELLITE DEBRIS
Your satellite tracking list
Your tracking list is empty





NASA's NSSDC Master Catalog

Two Line Element Set (TLE):
1 35448U 93036AKS 15213.34396537  .00000761  00000-0  25380-3 0  9992
2 35448 073.9114 334.0271 0014295 225.2441 167.0247 14.39283330327816

Source of the keplerian elements: AFSPC

N2YO: 256